Regional Weather Roundup
Issued by NWS

Home | Current Version | Previous Version | Text Only | Print | Product List | Glossary Off
Versions: 1 2 3 4 5 6 7 8 9 10 11 12 13 14 15 16 17 18 19 20 21 22 23 24 25 26 27 28 29 30 31 32 33 34 35 36 37 38 39 40 41 42 43 44 45 46 47 48 49 50

000
ASUS43 KTOP 291959
RWRKS

WEATHER ROUNDUP FOR KANSAS
NATIONAL WEATHER SERVICE GOODLAND KS
300 PM CDT SAT APR 29 2017

NOTE:  "FAIR" INDICATES FEW OR NO CLOUDS BELOW 12,000 FEET WITH NO
SIGNIFICANT WEATHER AND/OR OBSTRUCTIONS TO VISIBILITY.

KSZ001>006-013>018-027>032-041>047-292100-
NORTHWEST KANSAS

CITY           SKY/WX    TMP DP  RH WIND       PRES   REMARKS
GOODLAND       LGT SNOW  35  32  88 N25G39    30.05S FOG     WCI  23
HAYS           LGT RAIN  41  39  93 N25G36    29.91R FOG
HILL CITY      LGT RAIN  40  37  89 N31G39    29.98F FOG     WCI  28
RUSSELL        LGT RAIN  42  40  92 N26G38    29.88F FOG
$$

KSZ061>065-074>080-084>089-292100-
SOUTHWEST KANSAS

CITY           SKY/WX    TMP DP  RH WIND       PRES   REMARKS
DODGE CITY     RAIN      40  38  93 N31G40    29.85F FOG     WCI  28
ELKHART          N/A     32  26  78 N21         N/A  WCI  20
GARDEN CITY    DRIZZLE   35  32  88 N31G44    29.90F WCI  22
GREAT BEND     LGT RAIN  42  41  96 N21G30    29.86F FOG
LIBERAL        LGT RAIN  37  35  92 N31G40    29.86S WCI  24
$$

KSZ066>073-081>083-090>101-292100-
SOUTHEAST KANSAS

CITY           SKY/WX    TMP DP  RH WIND       PRES   REMARKS
CHANUTE        LGT RAIN  55  52  89 E14G24    29.69R
COFFEYVILLE    TSTM      54  53  97 E16G29    29.67F FOG
HUTCHINSON     LGT RAIN  45  43  93 N16G24    29.77F FOG
MEDICINE LODGE   N/A     44  41  89 N22G31    29.75F
NEWTON         LGT RAIN  45  44  97 N18       29.76F FOG
PARSONS        RAIN      55  53  93 E9G22     29.67R
WICHITA INTL   CLOUDY    47  46  97 N16G28    29.74F FOG
WICHITA JABRA  CLOUDY    47  46  97 N17G25    29.74S FOG
WICHITA MCCONL CLOUDY    48  46  93 N17       29.73S
WINFIELD       CLOUDY    52  50  93 N13       29.70F
$$

KSZ007>012-019>026-033>040-048>060-102>105-292100-
NORTHEAST KANSAS

CITY           SKY/WX    TMP DP  RH WIND       PRES   REMARKS
CONCORDIA      RAIN      43  42  97 N15G28    29.91R FOG
EMPORIA        LGT RAIN  49  49 100 NW9       29.72R
LAWRENCE       CLOUDY    49  48  97 E22G31    29.70F
MANHATTAN      CLOUDY    48  47  96 NE17G23   29.82R
OLATHE IND     LGT RAIN  49  48  97 NE21G35   29.71F
OLATHE EXE     LGT RAIN  48  48 100 NE22G33   29.74F
SALINA         LGT RAIN  46  43  89 N17       29.85R FOG
TOPEKA BILLARD CLOUDY    49  48  97 NE25G32   29.68F
TOPEKA FORBES  CLOUDY    49  47  93 NE17G33   29.63F
$$




USA.gov is the U.S. government's official web portal to all federal, state and local government web resources and services.